Location: Byszew
(52.1813°N, 19.2693°E)
Time: 14:21:48
(UTC+00:00)

ATLAS 5 CENTAUR R/B - Pass Details

Date: 03 March 2021
Orbit: 254 x 14192 km, 60.8° (Epoch: 12 April)

Event Time Altitude Azimuth Distance (km) Brightness Sun altitude
Rises 17:17:36 0° 238° (WSW) 8,977 9.0 -8.7°
Reaches altitude 10° 17:26:04 10° 242° (WSW) 5,854 8.0 -10.0°
Maximum altitude 17:38:11 64° 323° (NW) 1,023 3.3 -11.8°
Drops below altitude 10° 17:41:41 10° 47° (NE) 1,783 4.0 -12.3°
Enters shadow 17:41:47 - 48° (NE) 1,824 4.1 -12.4°
